EW5738 Weather Reports


time (UTC)temp
C
wind
direction
speed
KPH
gust
KPH
rain 1hr
cm
rain 24hr
cm
rain mn
cm
humidity
%
barometer
mb
20260510011611 22 212 8.0 19.3 0.00 0.00 0.00 67 1026.9
20260510010105 22 181 6.4 16.1 0.00 0.00 0.00 68 1027.1
20260510004550 21 190 3.2 12.9 0.00 0.00 0.00 69 1027.3
20260510003047 21 200 1.6 12.9 0.00 0.00 0.00 69 1027.5
20260510001546 21 197 6.4 14.5 0.00 0.00 0.00 69 1027.6
20260510000048 21 190 6.4 11.3 0.00 0.00 0.00 71 1027.7
20260509234540 20 286 3.2 12.9 0.00 0.00 0.00 72 1027.7
20260509233035 20 207 3.2 11.3 0.00 0.00 0.00 71 1027.7
20260509231531 19 167 1.6 16.1 0.00 0.00 0.00 72 1027.6
20260509230027 18 114 3.2 16.1 0.00 0.00 0.00 74 1027.3
20260509224525 18 167 8.0 12.9 0.00 0.00 0.00 73 1027.1
20260509223025 18 178 1.6 16.1 0.00 0.00 0.00 74 1027.0
20260509221518 17 51 4.8 17.7 0.00 0.00 0.00 75 1026.9
20260509220016 17 206 1.6 9.7 0.00 0.00 0.00 76 1026.7
20260509214511 16 140 3.2 6.4 0.00 0.00 0.00 78 1026.6
20260509213006 15 46 1.6 4.8 0.00 0.00 0.00 79 1026.4
20260509211502 15 89 0.0 8.0 0.00 0.00 0.00 82 1026.4
20260509204603 13 142 3.2 6.4 0.00 0.00 0.00 85 1025.7
20260509203059 12 286 1.6 4.8 0.00 0.00 0.00 86 1025.6
20260509201552 12 219 3.2 8.0 0.00 0.00 0.00 86 1025.4
20260509200051 12 187 4.8 8.0 0.00 0.00 0.00 84 1025.3
20260509194550 13 178 1.6 4.8 0.00 0.00 0.00 82 1025.3
20260509193047 13 234 1.6 4.8 0.00 0.00 0.00 83 1025.3
20260509191546 12 20 1.6 4.8 0.00 0.00 0.00 85 1025.0
20260509190049 13 166 1.6 6.4 0.00 0.00 0.00 84 1024.9
20260509184547 13 156 1.6 6.4 0.00 0.00 0.00 84 1024.7
20260509183044 13 46 0.0 4.8 0.00 0.00 0.00 83 1024.7
20260509181545 13 321 1.6 3.2 0.00 0.00 0.00 84 1024.7
20260509180042 12 283 3.2 6.4 0.00 0.00 0.00 85 1024.6
20260509174640 13 286 3.2 6.4 0.00 0.00 0.00 85 1024.6
20260509173038 13 197 0.0 3.2 0.00 0.00 0.00 82 1024.7
20260509171538 14 135 0.0 3.2 0.00 0.00 0.00 80 1024.7
20260509170036 13 135 0.0 3.2 0.00 0.00 0.00 84 1024.5
20260509164535 13 295 1.6 3.2 0.00 0.00 0.00 83 1024.6
20260509163047 13 314 1.6 3.2 0.00 0.00 0.00 85 1024.7
20260509161532 13 319 1.6 3.2 0.00 0.00 0.00 86 1024.8
20260509160031 12 331 0.0 4.8 0.00 0.00 0.00 89 1024.7
20260509154530 12 324 0.0 4.8 0.00 0.00 0.00 90 1024.7
20260509153026 12 1 0.0 4.8 0.00 0.00 0.00 89 1024.7
20260509151523 12 283 0.0 3.2 0.00 0.00 0.00 87 1025.0
20260509150019 13 201 1.6 4.8 0.00 0.00 0.00 86 1025.0
20260509144516 13 178 1.6 3.2 0.00 0.00 0.00 84 1024.9
20260509143015 14 46 0.0 1.6 0.00 0.00 0.00 84 1024.9
20260509141514 13 169 3.2 4.8 0.00 0.00 0.00 85 1024.9
20260509140012 13 284 1.6 4.8 0.00 0.00 0.00 85 1024.9
20260509134508 13 303 6.4 12.9 0.00 0.00 0.00 87 1024.9
20260509133007 13 286 3.2 8.0 0.00 0.00 0.00 86 1025.1
20260509131506 13 297 4.8 6.4 0.00 0.00 0.00 86 1025.2
20260509130012 13 283 3.2 8.0 0.00 0.00 0.00 87 1025.2
20260509124505 13 317 3.2 6.4 0.00 0.00 0.00 85 1025.1
20260509123057 13 314 4.8 8.0 0.00 0.00 0.00 84 1025.1
20260509121556 14 286 3.2 6.4 0.00 0.00 0.00 83 1025.2
20260509120056 15 297 3.2 8.0 0.00 0.00 0.00 82 1025.2
20260509114600 14 311 4.8 9.7 0.00 0.00 0.00 83 1025.3
20260509113055 15 303 3.2 8.0 0.00 0.00 0.00 82 1025.3
20260509111554 14 311 4.8 8.0 0.00 0.00 0.00 83 1025.2
20260509110057 15 301 3.2 6.4 0.00 0.00 0.00 82 1025.2
20260509104552 15 295 4.8 9.7 0.00 0.00 0.00 81 1025.2
20260509103050 15 297 4.8 11.3 0.00 0.00 0.00 81 1025.1
20260509101549 15 298 3.2 6.4 0.00 0.00 0.00 80 1025.0
20260509094546 16 305 3.2 6.4 0.00 0.00 0.00 76 1024.9
20260509093045 16 295 1.6 4.8 0.00 0.00 0.00 75 1024.6
20260509091542 16 303 1.6 4.8 0.00 0.00 0.00 73 1024.5
20260509090041 17 314 1.6 4.8 0.00 0.00 0.00 69 1024.4
20260509084546 17 314 1.6 4.8 0.00 0.00 0.00 68 1024.2
20260509083039 18 286 0.0 1.6 0.00 0.00 0.00 63 1023.9
20260509081539 18 286 0.0 3.2 0.00 0.00 0.00 63 1023.8
20260509080054 18 178 1.6 4.8 0.00 0.00 0.00 62 1023.6
20260509074537 19 160 1.6 4.8 0.00 0.00 0.00 60 1023.5
20260509073110 20 124 0.0 4.8 0.00 0.00 0.00 57 1023.3
20260509071534 20 124 1.6 9.7 0.00 0.00 0.00 55 1023.3
20260509070034 21 164 3.2 12.9 0.00 0.00 0.00 55 1023.0
20260509064533 21 119 6.4 16.1 0.00 0.00 0.00 54 1022.8
20260509063033 21 121 6.4 16.1 0.00 0.00 0.00 54 1022.6
20260509061532 22 135 4.8 12.9 0.00 0.00 0.00 53 1022.4
20260509060030 22 135 3.2 16.1 0.00 0.00 0.00 53 1022.2
20260509054535 22 135 1.6 14.5 0.00 0.00 0.00 52 1022.2
20260509053031 22 148 3.2 12.9 0.00 0.00 0.00 51 1022.1
20260509051527 22 168 8.0 14.5 0.00 0.00 0.00 51 1022.0
20260509050034 22 161 1.6 6.4 0.00 0.00 0.00 51 1022.0
20260509044523 22 135 1.6 11.3 0.00 0.00 0.00 54 1022.0
20260509043037 22 124 3.2 11.3 0.00 0.00 0.00 54 1022.0
20260509041520 22 130 9.7 17.7 0.00 0.00 0.00 53 1022.1
20260509040019 23 129 1.6 11.3 0.00 0.00 0.00 53 1022.0
20260509034518 22 144 3.2 8.0 0.00 0.00 0.00 54 1022.1
20260509033020 22 132 4.8 16.1 0.00 0.00 0.00 55 1022.2
20260509031518 22 13 1.6 9.7 0.00 0.00 0.00 57 1022.5
20260509030012 22 152 1.6 16.1 0.00 0.00 0.00 55 1022.5
20260509024512 23 46 4.8 14.5 0.00 0.00 0.00 54 1022.7
20260509023017 22 124 3.2 12.9 0.00 0.00 0.00 56 1023.0
20260509021516 23 229 4.8 11.3 0.00 0.00 0.00 54 1023.2
20260509020004 22 118 8.0 16.1 0.00 0.00 0.00 55 1023.4
20260509014503 22 173 9.7 17.7 0.00 0.00 0.00 53 1023.6
20260509013107 22 193 9.7 19.3 0.00 0.00 0.00 53 1023.7